CAPE
1 1 1 1 2 2 2 2 2 1 1 1 2 3 2 0 0 0 0 0 44 2300 1603 753 479 507 749 787 356 1068 736 280 160 93 88 0 68 234 353 258 115 310 158 319 725
1 1 1 1 1 1 1 1 1 2 1 1 1 2 1 0 0 0 0 107 2668 2574 445 597 1064 930 1436 1284 336 837 590 369 223 170 122 3 72 259 422 198 290 350 455 552 495
1 1 1 1 1 0 1 1 1 2 2 1 1 2 1 0 0 0 0 2078 2842 1638 473 1425 1315 1512 1902 886 711 857 532 306 238 159 101 61 95 219 475 206 271 390 517 615 688
1 1 2 1 1 1 1 1 2 3 2 1 0 1 0 0 0 0 1000 2669 2676 973 1279 1345 1914 1664 858 1235 1116 889 768 549 163 178 55 106 123 275 353 238 73 375 518 649 693
1 2 2 1 2 2 2 2 3 3 2 1 0 0 0 0 0 1060 2900 2837 1692 899 1048 1512 1784 688 1084 915 1111 977 242 429 271 121 114 37 172 215 378 179 209 441 556 593 650
4 5 4 4 3 2 4 6 4 3 2 1 0 0 0 0 0 1561 1564 1503 1298 789 816 628 634 1033 928 254 326 607 108 286 286 191 121 104 104 109 256 343 393 481 547 525 550
5 5 4 5 3 3 4 6 3 2 1 0 0 0 0 0 424 1351 1398 1012 1138 724 584 630 520 295 2 1 5 71 212 210 200 178 167 150 176 184 263 403 498 490 551 517 554
5 4 4 5 6 6 5 3 0 1 0 0 0 0 0 0 1043 1386 1110 902 919 449 7 137 403 122 0 1 15 18 91 222 165 43 40 178 218 252 302 465 516 491 439 490 585
4 3 4 5 7 5 2 0 0 0 0 0 0 0 0 3 192 699 552 337 738 725 699 71 0 0 0 52 29 2 27 97 56 124 122 41 136 40 255 390 497 437 413 439 474
3 3 3 5 6 3 0 0 0 0 0 0 0 0 0 0 0 492 12 22 144 420 311 291 0 0 12 53 106 70 72 48 41 115 229 87 86 246 229 257 394 337 312 400 370
3 3 4 5 4 1 0 0 0 0 0 0 0 0 0 0 0 0 0 0 0 0 0 0 0 0 84 22 46 46 101 151 167 139 206 371 324 294 282 189 264 267 212 147 192
2 4 6 4 2 1 0 0 0 0 0 0 0 0 0 0 0 0 0 0 0 0 0 0 0 0 0 30 68 79 81 89 276 202 45 222 246 315 373 315 240 204 161 49 29
3 5 4 3 1 0 0 0 0 0 0 0 0 0 0 0 0 0 0 0 0 0 0 0 0 0 0 0 19 53 32 9 34 247 277 251 281 371 391 335 303 164 90 43 44
6 8 1 5 0 0 0 0 0 0 0 0 0 0 0 0 0 0 0 0 0 0 0 0 0 0 0 0 0 1 0 0 112 97 142 214 133 178 484 324 300 316 193 74 62
8 1 1 1 0 0 0 0 0 0 0 0 0 0 0 0 0 0 0 0 0 0 0 0 0 0 0 0 0 0 24 96 198 181 197 261 235 265 174 488 379 316 275 242 197
4 1 4 1 1 0 0 0 0 0 0 0 0 0 0 0 0 0 0 0 0 0 0 0 0 0 0 0 0 35 173 138 141 325 107 123 212 176 317 423 405 335 262 227 257
0 1 1 0 0 0 0 0 0 0 0 0 0 0 0 0 0 0 0 0 0 0 0 0 0 0 0 0 25 134 33 0 5 174 2 59 327 229 196 159 269 299 291 301 150
0 0 0 0 0 0 0 0 0 0 0 0 0 0 0 0 0 0 0 0 0 0 0 0 0 0 0 0 0 1 0 0 0 0 1 2 319 82 32 2 2 16 219 302 238
0 0 0 0 0 0 0 0 0 0 0 0 0 0 0 0 0 0 0 0 0 0 0 0 0 0 0 0 0 0 0 0 0 0 0 7 199 75 30 30 0 0 142 304 205
0 0 0 0 0 0 0 0 0 0 0 0 0 0 0 0 0 0 0 0 0 0 0 0 0 0 0 0 0 0 0 0 0 0 0 0 0 0 31 8 0 9 153 250 345
0 0 0 0 0 0 0 0 0 0 0 0 0 0 0 0 0 0 0 0 0 0 0 0 0 0 0 0 0 0 0 0 0 0 0 0 0 0 20 3 0 0 16 221 326
0 0 0 0 0 0 0 0 0 0 0 0 0 0 0 0 0 0 0 0 0 0 0 0 0 0 0 0 0 0 0 0 0 0 0 0 0 0 0 0 0 0 0 139 340
0 0 0 0 0 0 0 0 0 0 0 0 0 0 0 0 0 0 0 0 0 0 0 0 0 0 0 0 0 0 0 0 0 0 0 0 0 0 0 0 0 0 0 312 415
0 0 0 0 0 0 0 0 0 0 0 0 0 0 0 0 0 0 0 0 0 0 0 0 0 0 0 0 0 0 0 0 0 0 0 0 0 0 0 0 0 0 0 107 482
0 0 0 0 0 0 0 0 0 0 0 0 0 0 0 0 0 0 0 0 0 0 0 0 0 0 0 0 0 0 0 0 0 0 0 0 0 0 0 0 0 0 0 25 220
0 0 0 0 0 0 0 0 0 0 0 0 0 0 0 0 0 0 0 0 0 0 0 0 0 0 0 0 0 0 0 0 0 0 0 0 0 0 0 0 0 0 0 95 311
0 0 0 0 0 0 0 0 0 0 0 0 0 0 0 0 0 0 0 0 0 0 0 0 0 0 0 0 0 0 0 0 0 0 0 0 0 0 3 0 0 0 0 0 214
CIN
-0 -0 -0 -0 -0 -0 -0 -0 -0 -0 -0 -0 -0 -0 -0 -0 -0 -0 -0 -0 -80 -279 -294 -327 -314 -286 -251 -208 -253 -136 -41 -12 -23 -48 -77 -0 -87 -66 -60 -60 -93 -61 -103 -100 -79
-0 -0 -0 -0 -0 -0 -0 -0 -0 -0 -0 -0 -0 -0 -0 -0 -0 -0 -0 -513 -340 -291 -407 -339 -248 -245 -143 -137 -212 -97 -29 -16 -24 -50 -76 -19 -97 -80 -66 -75 -82 -100 -112 -117 -155
-0 -0 -0 -0 -0 -0 -0 -0 -0 -0 -0 -0 -0 -0 -0 -0 -0 -0 -0 -457 -308 -388 -406 -215 -200 -154 -94 -174 -150 -107 -33 -49 -29 -56 -101 -149 -106 -85 -70 -73 -80 -103 -137 -129 -138
-0 -0 -0 -0 -0 -0 -0 -0 -0 -0 -0 -0 -0 -0 -0 -0 -0 -0 -628 -370 -321 -343 -260 -222 -145 -114 -118 -85 -127 -74 -62 -42 -45 -69 -130 -109 -100 -62 -69 -63 -100 -126 -145 -149 -137
-0 -0 -0 -0 -0 -0 -0 -0 -0 -0 -0 -0 -0 -0 -0 -0 -0 -414 -345 -322 -374 -319 -207 -168 -132 -123 -46 -96 -107 -62 -47 -34 -27 -65 -58 -109 -58 -52 -77 -115 -133 -156 -166 -145 -130
-0 -0 -0 -0 -0 -0 -0 -0 -0 -0 -0 -0 -0 -0 -0 -0 -0 -439 -457 -435 -352 -303 -234 -191 -112 -107 -76 -89 -67 -48 -88 -40 -48 -64 -75 -64 -74 -84 -83 -144 -174 -189 -164 -145 -136
-0 -0 -0 -0 -0 -0 -0 -0 -0 -0 -0 -0 -0 -0 -0 -0 -529 -443 -444 -434 -401 -324 -202 -186 -188 -130 -15 -61 -65 -95 -44 -59 -88 -105 -80 -78 -90 -74 -140 -148 -159 -179 -167 -153 -144
-0 -0 -0 -0 -0 -0 -0 -0 -0 -0 -0 -0 -0 -0 -0 -0 -464 -397 -433 -436 -410 -374 -108 -251 -224 -222 -0 -15 -226 -114 -59 -27 -87 -131 -180 -84 -35 -77 -175 -145 -139 -171 -196 -178 -160
-0 -0 -0 -0 -0 -0 -0 -0 -0 -0 -0 -0 -0 -0 -0 -82 -313 -479 -486 -393 -375 -348 -302 -311 -0 -0 -0 -169 -165 -21 -75 -39 -66 -117 -104 -103 -57 -136 -201 -154 -156 -155 -172 -182 -149
-0 -0 -0 -0 -0 -0 -0 -0 -0 -0 -0 -0 -0 -0 -0 -0 -0 -519 -316 -113 -482 -332 -301 -292 -0 -0 -196 -147 -71 -74 -75 -95 -54 -81 -102 -85 -85 -169 -246 -196 -165 -160 -171 -178 -154
-0 -0 -0 -0 -0 -0 -0 -0 -0 -0 -0 -0 -0 -0 -0 -0 -0 -2 -0 -0 -0 -0 -0 -0 -0 -0 -111 -183 -157 -124 -87 -37 -62 -124 -79 -47 -74 -120 -234 -232 -200 -179 -184 -189 -155
-0 -0 -0 -0 -0 -0 -0 -0 -0 -0 -0 -0 -0 -0 -0 -0 -0 -0 -0 -0 -0 -0 -0 -0 -0 -0 -0 -179 -126 -101 -91 -64 -89 -187 -134 -121 -96 -111 -238 -235 -203 -204 -205 -223 -230
-0 -0 -0 -0 -0 -0 -0 -0 -0 -0 -0 -0 -0 -0 -0 -0 -0 -0 -0 -0 -0 -0 -0 -0 -0 -0 -0 -0 -161 -125 -128 -164 -137 -147 -162 -164 -101 -180 -306 -279 -269 -273 -237 -245 -253
-0 -0 -0 -0 -0 -0 -0 -0 -0 -0 -0 -0 -0 -0 -0 -0 -0 -0 -0 -0 -0 -0 -0 -0 -0 -0 -0 -0 -0 -32 -0 -0 -144 -129 -96 -203 -70 -155 -270 -343 -325 -275 -282 -267 -305
-0 -0 -0 -0 -0 -0 -0 -0 -0 -0 -0 -0 -0 -0 -0 -0 -0 -0 -0 -0 -0 -0 -0 -0 -0 -0 -0 -0 -0 -0 -232 -149 -134 -117 -183 -191 -125 -94 -337 -237 -285 -286 -255 -251 -249
-0 -0 -0 -0 -0 -0 -0 -0 -0 -0 -0 -0 -0 -0 -0 -0 -0 -0 -0 -0 -0 -0 -0 -0 -0 -0 -0 -0 -0 -225 -112 -172 -203 -144 -88 -147 -114 -59 -165 -156 -133 -204 -267 -250 -261
-0 -0 -0 -0 -0 -0 -0 -0 -0 -0 -0 -0 -0 -0 -0 -0 -0 -0 -0 -0 -0 -0 -0 -0 -0 -0 -0 -0 -206 -74 -23 -0 -41 -75 -41 -284 -129 -43 -151 -247 -156 -129 -187 -271 -303
-0 -0 -0 -0 -0 -0 -0 -0 -0 -0 -0 -0 -0 -0 -0 -0 -0 -0 -0 -0 -0 -0 -0 -0 -0 -0 -0 -0 -0 -2 -0 -0 -0 -0 -2 -144 -78 -27 -123 -26 -36 -294 -192 -244 -303
-0 -0 -0 -0 -0 -0 -0 -0 -0 -0 -0 -0 -0 -0 -0 -0 -0 -0 -0 -0 -0 -0 -0 -0 -0 -0 -0 -0 -0 -0 -0 -0 -0 -0 -0 -49 -121 -180 -94 -155 -0 -3 -251 -279 -336
-0 -0 -0 -0 -0 -0 -0 -0 -0 -0 -0 -0 -0 -0 -0 -0 -0 -0 -0 -0 -0 -0 -0 -0 -0 -0 -0 -0 -0 -0 -0 -0 -0 -0 -0 -0 -0 -0 -72 -35 -0 -153 -219 -208 -301
-0 -0 -0 -0 -0 -0 -0 -0 -0 -0 -0 -0 -0 -0 -0 -0 -0 -0 -0 -0 -0 -0 -0 -0 -0 -0 -0 -0 -0 -0 -0 -0 -0 -0 -0 -0 -0 -0 -66 -27 -0 -0 -135 -198 -240
-0 -0 -0 -0 -0 -0 -0 -0 -0 -0 -0 -0 -0 -0 -0 -0 -0 -0 -0 -0 -0 -0 -0 -0 -0 -0 -0 -0 -0 -0 -0 -0 -0 -0 -0 -0 -0 -0 -0 -0 -0 -0 -0 -231 -203
-0 -0 -0 -0 -0 -0 -0 -0 -0 -0 -0 -0 -0 -0 -0 -0 -0 -0 -0 -0 -0 -0 -0 -0 -0 -0 -0 -0 -0 -0 -0 -0 -0 -0 -0 -0 -0 -0 -0 -0 -0 -0 -0 -308 -345
-0 -0 -0 -0 -0 -0 -0 -0 -0 -0 -0 -0 -0 -0 -0 -0 -0 -0 -0 -0 -0 -0 -0 -0 -0 -0 -0 -0 -0 -0 -0 -0 -0 -0 -0 -0 -0 -0 -0 -0 -0 -0 -0 -318 -386
-0 -0 -0 -0 -0 -0 -0 -0 -0 -0 -0 -0 -0 -0 -0 -0 -0 -0 -0 -0 -0 -0 -0 -0 -0 -0 -0 -0 -0 -0 -0 -0 -0 -0 -0 -0 -0 -0 -0 -0 -0 -0 -0 -399 -399
-0 -0 -0 -0 -0 -0 -0 -0 -0 -0 -0 -0 -0 -0 -0 -0 -0 -0 -0 -0 -0 -0 -0 -0 -0 -0 -0 -0 -0 -0 -0 -0 -0 -0 -0 -0 -0 -0 -0 -0 -0 -0 -0 -313 -356
-0 -0 -0 -0 -0 -0 -0 -0 -0 -0 -0 -0 -0 -0 -0 -0 -0 -0 -0 -0 -0 -0 -0 -0 -0 -0 -0 -0 -0 -0 -0 -0 -0 -0 -0 -0 -0 -0 -16 -0 -0 -0 -0 -0 -295
Wind_Speed
21 21 20 20 20 20 19 18 16 17 16 15 12 10 9 7 0 5 7 7 10 21 16 17 8 10 7 4 3 1 1 4 3 5 6 13 6 5 5 11 5 3 6 15 19
21 21 21 21 20 20 20 19 17 16 17 15 13 9 8 6 4 10 5 15 26 24 20 18 15 15 3 2 2 3 1 2 4 6 8 14 9 9 6 12 7 8 14 20 20
21 21 21 21 22 22 21 20 19 17 16 16 13 9 8 4 4 4 13 20 26 21 15 12 16 10 4 3 4 2 2 2 5 7 13 13 9 6 12 8 10 14 20 20 18
21 21 21 20 22 22 22 21 19 17 15 15 13 10 9 4 5 5 15 24 24 18 18 11 11 4 4 4 4 3 7 5 7 10 12 14 11 9 13 2 13 18 22 21 20
22 22 21 21 21 22 22 22 20 17 14 13 11 8 2 2 7 7 16 24 21 19 16 12 14 4 3 2 5 4 2 7 10 13 13 13 13 6 12 2 16 19 21 21 20
21 21 22 22 22 22 22 21 21 17 13 10 8 6 3 4 3 9 18 22 19 16 14 10 5 6 3 2 5 5 4 5 6 9 10 11 7 3 7 12 17 19 20 20 20
21 22 22 23 24 24 24 23 20 15 10 7 4 3 2 7 1 10 17 13 12 12 10 8 1 1 5 6 3 6 6 7 6 8 5 8 4 12 10 15 18 17 17 18 18
22 23 23 23 24 25 24 23 19 9 7 5 4 3 6 3 5 9 12 12 7 7 1 2 6 6 3 4 1 4 3 5 3 5 3 10 6 13 15 17 17 18 17 17 18
23 23 23 23 24 24 24 23 9 8 8 10 4 2 4 3 4 8 8 8 11 7 4 6 2 3 3 5 5 2 4 7 3 4 5 13 5 7 15 16 17 17 18 18 17
24 24 25 24 23 23 24 9 3 4 5 4 2 3 4 3 4 8 5 9 5 8 4 4 3 4 3 7 10 10 5 5 7 5 8 10 14 6 13 15 17 17 17 17 19
24 25 25 24 23 20 12 3 3 2 2 5 2 1 0 2 5 7 8 7 7 5 7 7 6 9 9 4 2 5 5 7 3 4 5 9 13 9 13 14 15 17 18 19 21
24 24 25 25 24 22 3 2 4 3 6 6 10 8 3 2 2 6 12 8 5 7 6 5 10 9 4 6 2 2 4 8 2 4 4 4 14 8 17 20 20 20 20 20 16
25 24 24 26 27 4 3 2 3 3 3 3 4 5 4 9 5 9 17 8 8 7 9 12 2 10 7 8 7 4 7 8 6 3 1 4 9 7 10 13 15 18 19 18 20
24 24 24 26 3 4 2 2 5 5 2 3 3 2 5 6 4 5 12 9 4 13 9 9 4 4 7 10 7 9 4 9 4 4 4 2 8 3 9 15 17 20 21 22 22
25 25 20 10 7 3 3 7 2 4 2 3 4 4 4 7 5 6 4 3 10 8 6 7 6 11 11 10 7 3 3 4 4 3 4 4 5 1 6 12 20 21 22 24 25
26 24 16 2 4 6 8 8 4 3 2 3 4 3 8 3 2 4 4 5 4 6 2 7 2 5 14 4 7 12 7 6 3 1 6 2 6 3 7 9 12 19 23 24 24
28 24 5 3 1 6 6 3 2 4 2 3 3 2 5 8 5 6 10 9 8 7 9 1 4 1 2 9 8 5 8 2 3 3 3 2 5 10 9 9 11 13 21 24 23
27 12 6 4 4 7 2 2 4 1 1 2 2 1 6 8 5 4 9 11 2 4 4 9 8 9 7 12 7 11 8 5 5 4 3 2 7 5 1 3 6 9 14 16 22
17 1 2 3 2 3 1 3 1 1 3 5 2 3 3 4 4 8 8 10 9 11 9 6 7 2 7 10 11 8 8 4 3 1 4 2 6 15 10 7 7 9 11 13 19
3 2 3 4 2 1 1 1 0 2 5 1 1 1 2 3 5 8 7 2 3 9 6 9 9 5 1 6 3 10 12 6 2 5 7 5 6 9 16 14 5 6 11 14 15
1 1 4 4 3 3 2 1 2 2 5 2 2 2 2 1 0 4 6 2 2 4 8 7 9 4 4 9 12 7 7 2 2 3 6 9 8 9 15 15 14 7 9 13 16
3 2 5 2 2 2 2 2 5 4 7 3 1 2 3 4 2 2 5 1 2 4 7 6 4 9 15 3 3 13 18 16 9 7 4 5 9 13 14 13 10 7 8 13 14
3 3 3 4 2 2 2 2 4 7 7 7 5 4 4 3 1 2 2 2 9 1 2 8 6 4 6 5 3 7 8 10 7 4 11 12 9 4 7 11 11 10 7 10 12
1 0 4 6 2 2 4 4 3 6 4 5 7 2 3 3 5 3 4 3 9 5 5 5 5 6 6 2 1 7 10 14 16 10 14 12 18 19 13 11 9 8 5 8 11
5 3 2 3 4 4 1 3 3 5 7 10 3 10 5 2 2 5 7 6 2 6 3 4 6 4 6 7 8 11 9 12 13 19 12 18 9 15 15 10 12 4 6 9 12
3 2 1 2 2 0 4 3 3 3 5 5 5 11 7 4 6 4 9 2 3 7 7 6 2 1 5 7 4 8 14 14 18 12 17 14 8 13 15 8 10 11 7 10 14
2 1 3 2 2 1 2 3 5 5 3 7 7 5 5 4 11 13 11 13 11 7 5 6 4 2 6 2 7 8 11 17 16 16 15 10 14 5 6 6 10 11 11 12 14
Wind_Direction
352 350 348 345 340 335 333 333 333 331 327 325 330 334 331 334 34 154 225 212 170 154 140 140 146 144 188 191 213 218 201 132 138 159 130 157 147 133 102 137 130 95 138 137 146
349 347 346 341 337 333 330 328 328 328 324 322 324 332 326 325 215 234 237 151 144 152 148 157 157 158 196 163 169 255 353 168 171 147 153 168 158 145 135 145 136 94 115 137 146
347 344 343 338 334 330 327 324 323 324 321 316 320 326 314 306 254 238 153 153 151 159 147 159 149 174 194 202 167 164 235 179 191 143 148 158 157 154 143 185 186 157 151 153 161
344 341 338 336 332 327 323 320 319 319 317 312 314 320 308 219 205 55 148 153 151 158 154 156 170 199 211 221 159 217 243 229 143 149 146 163 157 183 187 161 178 162 160 158 169
340 337 334 332 329 325 320 315 316 314 310 305 307 314 256 205 257 68 146 149 161 164 166 164 170 194 274 215 161 227 288 166 165 154 160 155 185 180 203 86 151 153 165 173 175
336 334 332 329 328 326 320 314 312 308 302 294 296 304 214 235 5 130 149 157 170 169 174 170 186 216 290 264 233 158 88 89 134 159 155 173 185 186 179 141 145 159 175 180 184
335 332 331 329 327 326 321 316 311 298 285 274 267 250 206 252 73 137 153 169 179 182 182 204 261 301 333 328 341 142 107 95 92 156 147 165 166 222 155 159 155 172 177 186 195
331 331 330 330 327 325 324 320 313 282 232 211 190 212 251 12 143 144 163 156 164 184 351 270 256 304 268 321 63 124 107 167 152 163 143 198 244 207 167 167 172 174 179 188 198
330 329 329 330 328 326 327 324 347 97 133 149 153 234 272 128 191 185 176 173 173 194 278 327 321 245 218 196 157 78 178 204 192 192 159 201 268 179 181 186 177 182 184 185 197
328 328 327 329 328 327 325 297 3 108 124 194 220 230 187 217 161 149 172 157 155 157 215 247 209 242 177 192 192 190 207 205 215 184 205 211 243 181 187 197 190 184 189 194 195
327 326 326 327 326 325 330 255 220 159 218 220 219 261 262 354 140 172 179 170 131 144 176 183 200 201 208 203 176 207 233 242 173 170 235 241 261 212 189 201 199 197 194 202 206
324 324 325 325 323 321 223 202 97 32 296 237 254 271 275 357 97 131 165 170 173 176 151 159 224 216 158 149 163 184 254 259 220 145 217 275 269 252 189 205 204 200 201 207 208
323 324 327 326 320 280 285 180 43 180 233 271 202 222 206 177 206 181 177 170 168 161 191 224 147 169 167 169 187 219 256 283 290 141 206 274 273 222 208 213 212 214 212 210 208
322 324 331 329 278 335 242 83 333 204 289 151 216 201 156 165 205 175 190 172 149 199 177 248 193 227 188 199 229 269 230 255 227 238 275 293 297 258 200 212 214 214 210 210 211
320 324 327 329 314 230 61 329 283 213 171 134 121 109 126 202 121 169 173 139 171 155 180 211 188 202 225 230 192 267 46 117 166 190 292 191 260 233 194 219 226 223 218 215 210
322 322 323 144 200 261 317 310 203 228 209 113 121 155 161 206 134 109 149 79 89 126 212 222 255 212 234 128 188 139 113 100 128 222 259 288 250 240 190 216 227 218 221 219 217
327 322 278 179 48 325 306 188 178 225 356 87 101 147 200 191 176 170 169 176 181 183 205 173 218 268 208 109 126 179 175 213 248 202 262 69 236 268 228 205 225 225 220 217 214
328 325 173 231 278 333 255 144 214 83 342 7 69 153 195 164 199 157 162 192 141 156 158 219 213 216 171 218 193 198 236 225 234 248 349 162 238 246 189 229 244 240 233 214 205
323 121 163 318 215 196 148 189 342 188 331 336 299 163 148 179 188 190 202 206 205 187 221 184 232 232 221 205 201 162 210 279 221 140 262 265 264 276 284 239 214 236 216 209 205
355 344 45 341 145 278 102 132 157 292 322 282 321 344 149 160 179 183 171 151 227 201 222 210 256 206 50 146 79 215 152 181 220 230 247 208 269 261 293 286 256 225 221 215 201
331 73 22 11 239 55 112 84 313 322 2 322 21 313 350 359 107 134 161 133 223 124 188 175 230 178 175 202 204 167 192 104 199 242 263 270 258 240 255 265 275 259 250 216 199
338 87 15 283 42 25 77 336 343 344 12 15 102 42 15 10 29 122 146 98 18 196 161 183 194 218 215 69 281 222 216 216 233 212 246 290 262 267 258 268 267 255 262 221 211
40 319 359 301 80 50 3 68 30 18 25 16 33 19 6 41 170 45 27 70 22 69 171 167 205 199 176 156 165 215 194 225 245 260 233 251 261 262 268 248 256 253 237 214 198
357 329 16 50 33 35 6 20 27 23 66 357 8 34 27 42 26 75 15 1 345 23 22 210 177 247 251 96 37 195 197 207 214 227 243 239 257 275 268 261 258 240 221 197 204
12 66 24 27 53 72 14 5 10 12 11 11 69 35 356 6 31 41 14 334 354 8 14 301 237 206 251 252 250 254 235 193 210 229 218 251 221 263 268 266 283 277 177 180 191
26 353 47 64 307 105 10 56 55 354 347 26 34 345 4 74 44 339 353 347 351 339 350 357 283 287 272 181 205 235 238 222 220 232 241 262 271 258 271 256 265 252 245 192 200
42 72 297 11 49 210 67 73 74 334 72 81 356 336 355 23 315 285 272 270 271 307 310 313 300 269 255 314 295 243 238 217 212 219 236 221 240 277 281 289 276 258 215 218 207